Fremont, MI

10:34 PM EDT on October 14, 2019 (GMT -0400)
Fremont

Weather History for KFFX - August, 2019

Change the Weather History Date:

Sunday, August 4, 2019

  Actual Average (KMKG) Record (KMKG)
Temperature  
Mean Temperature 72 °F -  
Max Temperature 85 °F 79 °F 92 °F (1988)
Min Temperature 58 °F 58 °F 41 °F (1907)
Cooling Degree Days 6    
Growing Degree Days 22 (Base 50)    
Moisture  
Dew Point 60 °F    
Average Humidity 73    
Maximum Humidity 100    
Minimum Humidity 40    
Precipitation  
Precipitation 0.00 in - - ()
Sea Level Pressure  
Sea Level Pressure 30.03 in    
Wind  
Wind Speed 1 mph (NW)    
Max Wind Speed 12 mph    
Max Gust Speed -    
Visibility 8 miles    
Events Fog , Rain    
Averages and records for this station are not official NWS values.
T = Trace of Precipitation, MM = Missing Value Source: NWS Daily Summary

Daily Weather History Graph

Daily Weather History Graph

Search for Another Location

Airport or City:

Astronomy

Aug. 04, 2019 Rise Set
Actual Time 6:36 AM EDT 9:02 PM EDT
Civil Twilight 6:04 AM EDT 9:34 PM EDT
Nautical Twilight 5:24 AM EDT 10:14 PM EDT
Astronomical Twilight 4:39 AM EDT 10:59 PM EDT
Moon 10:47 AM EDT (8/4) 11:34 PM EDT (8/4)
Length of Visible Light 15h 30m
Length of Day
14h 26m
Waxing Crescent, 18% of the Moon is Illuminated
Aug 4
Waxing Crescent
Aug 7
First Quarter
Aug 15
Full
Aug 23
Last Quarter
Aug 30
New

Hourly Weather History & Observations

Time (EDT) Temp. Heat Index Dew Point Humidity Pressure Visibility Wind Dir Wind Speed Gust Speed Precip Events Conditions
12:19 AM 63.1 °F - 61.2 °F 93% 30.05 in 10.0 mi Calm Calm - N/A   Clear
12:37 AM 63.3 °F - 61.5 °F 94% 30.05 in 10.0 mi Calm Calm - N/A   Clear
12:55 AM 62.8 °F - 61.3 °F 95% 30.04 in 10.0 mi Calm Calm - N/A   Clear
1:15 AM 62.6 °F - 61.7 °F 97% 30.05 in 10.0 mi Calm Calm - N/A   Clear
1:35 AM 62.1 °F - 61.7 °F 99% 30.05 in 10.0 mi Calm Calm - N/A   Clear
1:58 AM 62.4 °F - 61.3 °F 96% 30.05 in 10.0 mi Calm Calm - N/A   Clear
2:16 AM 62.2 °F - 61.9 °F 99% 30.05 in 10.0 mi Calm Calm - N/A   Clear
2:35 AM 62.4 °F - 62.1 °F 99% 30.05 in 10.0 mi Calm Calm - N/A   Clear
2:55 AM 62.2 °F - 62.1 °F 99% 30.04 in 10.0 mi Calm Calm - N/A   Clear
3:19 AM 61.2 °F - 60.8 °F 99% 30.04 in 10.0 mi NNW 3.5 mph - N/A   Clear
3:37 AM 61.2 °F - 61.0 °F 99% 30.04 in 10.0 mi Calm Calm - N/A   Clear
3:55 AM 61.2 °F - 61.2 °F 100% 30.03 in 10.0 mi Calm Calm - N/A   Clear
3:56 AM 61.2 °F - 61.2 °F 100% 30.04 in 10.0 mi Calm Calm - N/A   Clear
4:15 AM 61.2 °F - 61.0 °F 99% 30.03 in 10.0 mi Calm Calm - N/A   Clear
4:16 AM 61.2 °F - 61.0 °F 99% 30.03 in 10.0 mi Calm Calm - N/A   Clear
4:35 AM 60.1 °F - 60.1 °F 100% 30.03 in 7.0 mi Calm Calm - N/A   Clear
4:40 AM 60.1 °F - 60.1 °F 100% 30.03 in 7.0 mi Calm Calm - N/A   Clear
4:58 AM 59.5 °F - 59.5 °F 100% 30.03 in 5.0 mi Calm Calm - N/A   Clear
5:16 AM 59.9 °F - 59.9 °F 100% 30.03 in 7.0 mi Calm Calm - N/A   Clear
5:35 AM 59.4 °F - 59.4 °F 100% 30.03 in 0.2 mi Calm Calm - N/A Fog Fog
5:36 AM 59.2 °F - 59.2 °F 100% 30.03 in 0.2 mi Calm Calm - N/A Fog Fog
5:55 AM 59.7 °F - 59.7 °F 100% 30.03 in 0.2 mi Calm Calm - N/A Fog Fog
5:56 AM 59.7 °F - 59.7 °F 100% 30.03 in 0.2 mi Calm Calm - N/A Fog Fog
6:19 AM 58.8 °F - 58.8 °F 100% 30.04 in 0.2 mi Calm Calm - N/A Fog Fog
6:37 AM 60.1 °F - 60.1 °F 100% 30.05 in 0.2 mi Calm Calm - N/A Fog Fog
6:55 AM 60.1 °F - 60.1 °F 100% 30.05 in 0.2 mi Calm Calm - N/A Fog Fog
7:15 AM 60.8 °F - 60.8 °F 100% 30.05 in 0.2 mi Calm Calm - N/A Fog Fog
7:35 AM 61.5 °F - 61.5 °F 100% 30.05 in 0.8 mi Calm Calm - N/A   Overcast
7:40 AM 61.7 °F - 61.7 °F 100% 30.06 in 2.5 mi Calm Calm - N/A   Mostly Cloudy
7:58 AM 63.0 °F - 63.0 °F 100% 30.06 in 2.5 mi Calm Calm - N/A   Mostly Cloudy
8:16 AM 63.9 °F - 63.9 °F 100% 30.07 in 1.8 mi Calm Calm - N/A   Overcast
8:35 AM 64.6 °F - 64.6 °F 100% 30.07 in 4.0 mi Calm Calm - N/A   Overcast
8:55 AM 65.8 °F - 65.8 °F 100% 30.06 in 2.0 mi Calm Calm - N/A   Overcast
9:19 AM 68.4 °F - 66.7 °F 95% 30.06 in 10.0 mi Calm Calm - N/A   Scattered Clouds
9:36 AM 70.3 °F - 67.6 °F 91% 30.06 in 10.0 mi Calm Calm - N/A   Clear
9:55 AM 71.6 °F - 66.6 °F 84% 30.06 in 10.0 mi Calm Calm - N/A   Clear
9:56 AM 71.6 °F - 66.6 °F 84% 30.06 in 10.0 mi Calm Calm - N/A   Clear
10:15 AM 72.7 °F - 65.8 °F 79% 30.07 in 10.0 mi Calm Calm - N/A   Mostly Cloudy
10:16 AM 72.7 °F - 65.7 °F 79% 30.07 in 10.0 mi Calm Calm - N/A   Mostly Cloudy
10:35 AM 74.3 °F - 66.0 °F 75% 30.06 in 10.0 mi Calm Calm - N/A   Scattered Clouds
10:40 AM 75.7 °F - 64.8 °F 69% 30.06 in 10.0 mi Calm Calm - N/A   Scattered Clouds
10:58 AM 75.6 °F - 64.4 °F 68% 30.06 in 10.0 mi Calm Calm - N/A   Clear
11:16 AM 76.1 °F - 63.7 °F 65% 30.06 in 10.0 mi Calm Calm - N/A   Clear
11:36 AM 77.9 °F - 63.9 °F 62% 30.06 in 10.0 mi Calm Calm - N/A   Scattered Clouds
11:55 AM 77.2 °F - 62.8 °F 61% 30.06 in 10.0 mi Calm Calm - N/A   Scattered Clouds
11:56 AM 77.2 °F - 62.8 °F 61% 30.06 in 10.0 mi Calm Calm - N/A   Scattered Clouds
12:19 PM 79.9 °F - 62.6 °F 55% 30.05 in 10.0 mi Calm Calm - N/A   Scattered Clouds
12:37 PM 79.5 °F - 61.9 °F 55% 30.05 in 10.0 mi West 3.5 mph - N/A   Mostly Cloudy
12:55 PM 80.6 °F 81.6 °F 61.7 °F 52% 30.04 in 10.0 mi SW 3.5 mph - N/A   Scattered Clouds
1:15 PM 82.9 °F 83.2 °F 60.4 °F 46% 30.04 in 10.0 mi West 4.6 mph - N/A   Scattered Clouds
1:16 PM 83.3 °F 83.5 °F 60.3 °F 46% 30.04 in 10.0 mi West 4.6 mph - N/A   Scattered Clouds
1:35 PM 81.9 °F 82.3 °F 60.4 °F 48% 30.04 in 10.0 mi NNE 3.5 mph - N/A   Mostly Cloudy
1:58 PM 83.3 °F 83.4 °F 60.1 °F 45% 30.03 in 10.0 mi North 5.8 mph - N/A   Clear
2:16 PM 84.0 °F 83.3 °F 57.6 °F 40% 30.03 in 10.0 mi WNW 3.5 mph - N/A   Clear
2:35 PM 84.2 °F 83.8 °F 59.0 °F 42% 30.02 in 10.0 mi West 3.5 mph - N/A   Scattered Clouds
2:55 PM 84.0 °F 83.6 °F 58.5 °F 42% 30.02 in 10.0 mi Calm Calm - N/A   Scattered Clouds
2:56 PM 83.8 °F 83.4 °F 58.5 °F 42% 30.02 in 10.0 mi WSW 3.5 mph - N/A   Scattered Clouds
3:19 PM 85.3 °F 85.0 °F 60.1 °F 42% 30.02 in 10.0 mi WNW 9.2 mph - N/A   Mostly Cloudy
3:37 PM 83.3 °F 83.9 °F 61.5 °F 48% 30.01 in 10.0 mi West 5.8 mph - N/A   Mostly Cloudy
3:55 PM 84.6 °F 85.4 °F 63.0 °F 48% 30.01 in 10.0 mi WSW 10.4 mph - N/A   Mostly Cloudy
4:15 PM 79.5 °F - 64.6 °F 60% 30.01 in 10.0 mi West 4.6 mph - N/A Rain Rain
4:35 PM 77.9 °F - 65.7 °F 66% 30.00 in 10.0 mi West 4.6 mph - N/A   Mostly Cloudy
4:58 PM 83.5 °F 84.7 °F 63.9 °F 51% 30.00 in 10.0 mi WNW 11.5 mph - N/A   Mostly Cloudy
5:16 PM 83.3 °F 84.1 °F 62.2 °F 49% 30.00 in 10.0 mi WNW 11.5 mph - N/A   Scattered Clouds
5:35 PM 83.5 °F 83.7 °F 60.6 °F 46% 30.00 in 10.0 mi WNW 11.5 mph - N/A   Scattered Clouds
5:55 PM 82.9 °F 83.3 °F 60.6 °F 47% 30.00 in 10.0 mi NW 9.2 mph - N/A   Scattered Clouds
6:19 PM 81.9 °F 82.1 °F 59.0 °F 46% 30.00 in 10.0 mi WNW 9.2 mph - N/A   Clear
6:37 PM 81.3 °F 81.4 °F 57.9 °F 45% 30.00 in 10.0 mi WNW 9.2 mph - N/A   Clear
6:55 PM 80.8 °F 80.9 °F 57.2 °F 44% 30.00 in 10.0 mi NW 6.9 mph - N/A   Clear
7:15 PM 80.2 °F 80.5 °F 57.4 °F 45% 30.00 in 10.0 mi WNW 8.1 mph - N/A   Clear
7:16 PM 80.2 °F 80.5 °F 57.4 °F 45% 30.00 in 10.0 mi WNW 8.1 mph - N/A   Clear
7:35 PM 79.2 °F - 57.2 °F 47% 30.00 in 10.0 mi NW 5.8 mph - N/A   Clear
7:40 PM 79.2 °F - 57.7 °F 48% 30.01 in 10.0 mi NW 5.8 mph - N/A   Clear
7:58 PM 78.1 °F - 58.1 °F 50% 30.01 in 10.0 mi NW 4.6 mph - N/A   Clear
8:16 PM 76.8 °F - 57.6 °F 51% 30.01 in 10.0 mi NNW 3.5 mph - N/A   Clear
8:35 PM 74.7 °F - 58.3 °F 57% 30.01 in 10.0 mi NNW 4.6 mph - N/A   Clear
8:36 PM 74.5 °F - 58.3 °F 57% 30.01 in 10.0 mi NNW 4.6 mph - N/A   Clear
8:55 PM 72.7 °F - 55.9 °F 56% 30.01 in 10.0 mi North 3.5 mph - N/A   Clear
8:56 PM 72.7 °F - 55.9 °F 56% 30.01 in 10.0 mi North 3.5 mph - N/A   Clear
9:19 PM 70.9 °F - 55.2 °F 58% 30.01 in 10.0 mi North 3.5 mph - N/A   Clear
9:37 PM 69.4 °F - 55.8 °F 62% 30.01 in 10.0 mi Calm Calm - N/A   Clear
9:55 PM 70.2 °F - 54.0 °F 56% 30.00 in 10.0 mi North 3.5 mph - N/A   Clear
10:15 PM 67.3 °F - 56.1 °F 67% 30.00 in 10.0 mi Calm Calm - N/A   Clear
10:16 PM 67.3 °F - 55.9 °F 67% 30.00 in 10.0 mi Calm Calm - N/A   Clear
10:35 PM 66.4 °F - 55.6 °F 68% 30.00 in 10.0 mi Calm Calm - N/A   Clear
10:40 PM 66.4 °F - 55.6 °F 68% 30.00 in 10.0 mi Calm Calm - N/A   Clear
10:58 PM 64.6 °F - 55.4 °F 72% 30.00 in 10.0 mi Calm Calm - N/A   Clear
11:16 PM 63.5 °F - 55.4 °F 75% 30.00 in 10.0 mi Calm Calm - N/A   Clear
11:35 PM 62.6 °F - 54.7 °F 75% 30.00 in 10.0 mi Calm Calm - N/A   Clear
11:55 PM 61.2 °F - 54.1 °F 78% 30.00 in 10.0 mi Calm Calm - N/A   Clear
11:56 PM 61.2 °F - 54.1 °F 78% 30.00 in 10.0 mi Calm Calm - N/A   Clear